Hourly Data Report for October 31, 2013

All times are specified in Local Standard Time (LST). Add 1 hour to adjust for Daylight Saving Time where and when it is observed.

ARVIAT A
NUNAVUT

61°05'38.000" N
94°04'18.000" W
10.40 m
2300427
71174
YEK

Download Data

Hourly Data (October 2013)
Hourly Data Report for October 31, 2013
Temp Definition
°C
Dew Point Temp Definition
°C
Rel Hum Definition
%
Wind Dir Definition
10's deg

Wind Spd Definition
km/h
Visibility Definition
km
Stn Press Definition
kPa
Hmdx Definition


Wind Chill Definition


Weather Definition


TIME
00:00 Legend Double Dagger -1.1 -1.2 99 10 37 1.6 98.92   -9 LegendNANA
01:00 Legend Double Dagger -1.0 -1.1 99 9 33 3.2 98.97   -8 LegendNANA
02:00 Legend Double Dagger -1.0 -1.3 98 10 30 4.8 99.01   -8 LegendNANA
03:00 Legend Double Dagger -1.0 -1.4 97 9 28 9.7 99.05   -8 LegendNANA
04:00 Legend Double Dagger -1.0 -1.3 98 9 26 6.4 99.11   -7 LegendNANA
05:00 Legend Double Dagger -1.0 -1.3 98 9 28 4.0 99.18   -8 LegendNANA
06:00 Legend Double Dagger -1.0 -1.1 99 9 37 1.6 99.24   -8 LegendNANA
07:00 Legend Double Dagger -1.2 -1.5 98 9 41 2.0 99.32   -9 LegendNANA
08:00 Legend Double Dagger -1.2 -1.5 98 8 35 2.0 99.41   -9 LegendNANA
09:00 Legend Double Dagger -1.2 -1.6 97 9 37 3.2 99.45   -9 LegendNANA
10:00 Legend Double Dagger -1.2 -1.8 96 8 32 4.8 99.51   -8 LegendNANA
11:00 Legend Double Dagger -1.1 -1.7 96 9 35 3.6 99.55   -8 LegendNANA
12:00 Legend Double Dagger -0.8 -2.6 88 8 30 16.1 99.60   -8 LegendNANA
13:00 Legend Double Dagger -0.8 -2.9 86 8 24 16.1 99.66   -7 LegendNANA
14:00 Legend Double Dagger -0.5 -2.4 87 7 21 16.1 99.70   -6 LegendNANA
15:00 Legend Double Dagger -0.5 -2.1 89 12 30 16.1 99.75   -7 LegendNANA
16:00 Legend Double Dagger -1.0 -2.9 87 11 35 16.1 99.84   -8 LegendNANA
17:00 Legend Double Dagger -1.6 -4.3 82 10 33 16.1 99.96   -9 LegendNANA
18:00 Legend Double Dagger -1.3 -4.2 81 10 35 16.1 100.06   -9 LegendNANA
19:00 Legend Double Dagger -2.1 -5.4 78 10 35 16.1 100.15   -10 LegendNANA
20:00 Legend Double Dagger -2.1 -5.6 77 10 35 16.1 100.23   -10 LegendNANA
21:00 Legend Double Dagger -2.4 -5.9 77 11 30 16.1 100.31   -10 LegendNANA
22:00 Legend Double Dagger -3.1 -7.3 73 10 35 16.1 100.38   -11 LegendNANA
23:00 Legend Double Dagger -3.6 -9.2 65 9 35 16.1 100.47   -12 LegendNANA

Notes on Data Quality.

Legend

  • E = Estimated
  • M = Missing
  • NA = Not Available
  • ‡ = Partner data that is not subject to review by the National Climate Archives
Date modified: